Tracking 28091 objects as of 30-Sep-2023
HD Live streaming from Space Station
objects crossing your sky now

COSMOS 1348

Track COSMOS 1348 now!
COSMOS 1348 is classified as:


NORAD ID: 13124
Int'l Code: 1982-029A
Perigee: 6,360.0 km
Apogee: 34,059.8 km
Inclination: 72.0 °
Period: 718.8 minutes
Semi major axis: 26580 km
RCS: 16.1516 m2 (large)
Launch date: April 7, 1982
Source: Commonwealth of Independent States (former USSR) (CIS)
Launch site: PLESETSK MISSILE AND SPACE COMPLEX (PKMTR)
Your satellite tracking list
Your tracking list is empty




NASA's NSSDC Master Catalog

Two Line Element Set (TLE):
1 13124U 82029A   23269.49438387  .00000344  00000-0  00000+0 0  9990
2 13124  72.0178 182.8740 5210468   0.6995  52.6602  2.00331236303459
Source of the keplerian elements: AFSPC